Hourly Data Report for August 08, 2022

TORONTO CITY
ONTARIO
Current Station Operator: ECCC - MSC

43°40'00.000" N
79°24'00.000" W
112.50 m
6158355
71508
XTO

Download Data

Hourly Data (August 2022)
Hourly Data Report for August 8, 2022
TIME
LST
Temp Definition
°C
Dew Point Definition
°C
Rel Hum Definition
%
Precip. Amount Definition
mm

Wind Dir Definition
10's deg

Wind Spd Definition
km/h
Visibility Definition
km
Stn Press Definition
kPa
Hmdx Definition


Wind Chill Definition


Weather Definition


00:00 25.9 22.7 82 0.0       100.10 36   LegendNANA
01:00 25.6 22.8 85 0.0       100.07 36   LegendNANA
02:00 25.3 22.5 84 0.0       100.03 35   LegendNANA
03:00 25.0 22.1 84 0.0       99.98 34   LegendNANA
04:00 24.5 21.8 85 0.0       99.97 34   LegendNANA
05:00 24.7 21.4 82 0.0       99.96 33   LegendNANA
06:00 24.1 21.4 85 0.0       99.97 33   LegendNANA
07:00 24.3 21.4 84 0.0       99.96 33   LegendNANA
08:00 24.7 21.4 82 0.0       99.94 33   LegendNANA
09:00 25.1 21.5 80 0.0       99.91 34   LegendNANA
10:00 25.0 21.6 81 0.1       99.87 34   LegendNANA
11:00 26.3 21.9 77 0.0       99.81 36   LegendNANA
12:00 27.3 22.8 77 0.0       99.76 37   LegendNANA
13:00 26.0 22.5 81 0.0       99.69 36   LegendNANA
14:00 27.6 23.2 77 0.0       99.63 38   LegendNANA
15:00 28.2 21.6 67 0.0       99.55 37   LegendNANA
16:00 26.8 22.5 78 0.0       99.56 37   LegendNANA
17:00 26.9 22.9 79 0.4       99.53 37   LegendNANA
18:00 25.3 23.4 89 0.6       99.46 36   LegendNANA
19:00 25.6 22.8 84 0.1       99.43 36   LegendNANA
20:00 25.4 21.5 79 0.0       99.50 34   LegendNANA
21:00 25.4 21.7 80 0.0       99.54 34   LegendNANA
22:00 25.3 21.3 78 0.0       99.58 34   LegendNANA
23:00 23.5 18.8 75 0.0       99.67 30   LegendNANA

Notes on Data Quality.

Legend

  • E = Estimated
  • M = Missing
  • NA = Not Available*
  • [empty] = Indicates an unobserved value
Date modified: